STARLINK-3148 (49736 NORAD) Tracking and Keplerian Element Data
This shows tracking and keplerian element data for the satellite.
Feedback or suggestion? Click here.
Element | Value |
Catalog | 49736 |
Name | STARLINK-3148 |
Epoch Orbit | 2699 |
Epoch Day | 140.91667824 |
Epoch Year | 2022 |
RAAN | 263.5604 |
Inclination | 53.2174 |
Eccentricity | 0.0002637 |
Argument of Perigee | 22.7786 |
Mean Anonmoly | 145.3081 |
Mean Motion | 15.08836117 |
Decay Rate | -5.828E-05 |
L1 | 1 49736U 21115N 22140.91667824 -.00005828 00000+0 -34833-3 0 9999 |
L2 | 2 49736 53.2174 263.5604 0002637 22.7786 145.3081 15.08836117 26997 |
Live tracking and technical data element details for STARLINK-3148 (NORAD 49736). STARLINK-3148 can be tracked NOW for your location showing map with azimuth and elevation plus other details from your city location.
Track the satellite on the map from your city or location and see movement details for azimuth, elevation, latitude, longitude, range, height, and movement on the map or in text.
IsCatalogInMostPopularTable: catalog: 49736, numindb: 20
Update: records affected: 1
GetName: 49736 STARLINK-3148
Hit Count: updated at: Sun, 22 May 2022 03:49:47 GMT